SHIJIAN-23 (SJ-23)

Last updated on Tue Sep 22 2026 00:03:16 GMT+0000 (Coordinated Universal Time)

1 55131U 23002A 26264.60211516 -.00000018 00000+0 00000+0 0 9992 2 55131 3.9580 77.0418 0002940 228.9157 344.3695 1.00024736 13470
UTC large
Height (km)
Speed (km/s)
/
Latitude / Longitude
Inclination (degrees)
Orbital Period (minutes)
Azimuth
Elevation
Range (km)
Doppler Factor

Next 0 passes for location: London (51.5072 / 0.1276)

No passes found over London.
SHIJIAN-23 (SJ-23)